Fulton, NY

5:23 AM EDT on October 16, 2019 (GMT -0400)
Oswego County

Weather History for KFZY - May, 2019

Change the Weather History Date:

Sunday, May 5, 2019

  Actual Average (WUND) Record (WUND)
Temperature  
Mean Temperature 52 °F -  
Max Temperature 64 °F - - (-1)
Min Temperature 41 °F - - (-1)
Degree Days  
Heating Degree Days 12    
Growing Degree Days 2 (Base 50)    
Moisture  
Dew Point 45 °F    
Average Humidity 75    
Maximum Humidity 90    
Minimum Humidity 58    
Precipitation  
Precipitation 0.05 in - - ()
Sea Level Pressure  
Sea Level Pressure 29.87 in    
Wind  
Wind Speed 2 mph (NNW)    
Max Wind Speed 8 mph    
Max Gust Speed -    
Visibility 10 miles    
Events Rain    
Averages and records for this station are not official NWS values.
T = Trace of Precipitation, MM = Missing Value Source: NWS Daily Summary

Daily Weather History Graph

Daily Weather History Graph

Search for Another Location

Airport or City:

Astronomy

May. 05, 2019 Rise Set
Actual Time 5:53 AM EDT 8:11 PM EDT
Civil Twilight 5:21 AM EDT 8:43 PM EDT
Nautical Twilight 4:42 AM EDT 9:22 PM EDT
Astronomical Twilight 3:59 AM EDT 10:06 PM EDT
Moon 6:38 AM EDT (5/5) 9:02 PM EDT (5/5)
Length of Visible Light 15h 21m
Length of Day
14h 18m
New Moon, 1% of the Moon is Illuminated
May 5
New Moon
May 11
First Quarter
May 18
Full
May 26
Last Quarter
Jun 3
New

Hourly Weather History & Observations

Time (EDT) Temp. Windchill Dew Point Humidity Pressure Visibility Wind Dir Wind Speed Gust Speed Precip Events Conditions
12:54 AM 43.0 °F 41.3 °F 39.0 °F 86% 29.93 in 10.0 mi NW 3.5 mph - N/A   Clear
1:19 AM 43.0 °F 41.3 °F 39.0 °F 86% 29.92 in 10.0 mi NW 3.5 mph - N/A   Partly Cloudy
1:54 AM 43.0 °F 41.3 °F 39.0 °F 86% 29.92 in 10.0 mi NW 3.5 mph - N/A   Clear
2:54 AM 43.0 °F - 39.0 °F 86% 29.92 in 10.0 mi Calm Calm - N/A   Clear
3:54 AM 41.0 °F - 37.9 °F 89% 29.91 in 10.0 mi Calm Calm - N/A   Clear
4:03 AM 41.0 °F - 37.9 °F 89% 29.90 in 10.0 mi Calm Calm - N/A   Scattered Clouds
4:11 AM 41.0 °F - 37.0 °F 86% 29.90 in 10.0 mi Calm Calm - N/A   Mostly Cloudy
4:54 AM 41.0 °F - 37.9 °F 89% 29.91 in 10.0 mi Calm Calm - N/A   Overcast
5:54 AM 41.0 °F - 37.0 °F 86% 29.90 in 10.0 mi Calm Calm - N/A   Overcast
6:54 AM 41.0 °F - 37.9 °F 89% 29.90 in 10.0 mi Calm Calm - N/A   Overcast
7:54 AM 44.1 °F - 41.0 °F 89% 29.90 in 10.0 mi Calm Calm - N/A   Overcast
8:23 AM 46.9 °F - 44.1 °F 90% 29.89 in 10.0 mi NNE 3.5 mph - N/A   Scattered Clouds
8:54 AM 48.9 °F - 44.1 °F 83% 29.89 in 10.0 mi Calm Calm - N/A   Clear
9:54 AM 55.0 °F - 44.1 °F 67% 29.88 in 10.0 mi Calm Calm - N/A   Clear
10:54 AM 55.9 °F - 45.0 °F 67% 29.88 in 10.0 mi Calm Calm - N/A   Mostly Cloudy
11:54 AM 59.0 °F - 48.0 °F 67% 29.88 in 10.0 mi Variable 3.5 mph - N/A   Mostly Cloudy
12:18 PM 61.0 °F - 48.0 °F 62% 29.86 in 10.0 mi East 5.8 mph - N/A   Scattered Clouds
12:54 PM 61.0 °F - 48.0 °F 62% 29.86 in 10.0 mi Calm Calm - N/A   Scattered Clouds
1:54 PM 63.0 °F - 48.9 °F 60% 29.85 in 10.0 mi ESE 4.6 mph - N/A   Mostly Cloudy
2:44 PM 61.0 °F - 46.9 °F 60% 29.83 in 10.0 mi WNW 8.1 mph - N/A   Mostly Cloudy
2:54 PM 61.0 °F - 46.9 °F 60% 29.84 in 10.0 mi NW 8.1 mph - N/A   Mostly Cloudy
3:26 PM 61.0 °F - 48.0 °F 62% 29.82 in 10.0 mi NW 6.9 mph - N/A   Overcast
3:54 PM 61.0 °F - 48.0 °F 62% 29.82 in 10.0 mi NW 5.8 mph - N/A   Mostly Cloudy
4:54 PM 64.0 °F - 48.9 °F 58% 29.81 in 10.0 mi Calm Calm - N/A   Mostly Cloudy
5:54 PM 63.0 °F - 48.9 °F 60% 29.82 in 10.0 mi NNW 5.8 mph - N/A   Overcast
6:54 PM 61.0 °F - 48.0 °F 62% 29.83 in 10.0 mi Variable 3.5 mph - N/A   Overcast
7:46 PM 60.1 °F - 51.1 °F 72% 29.84 in 10.0 mi Variable 3.5 mph - N/A   Overcast
7:54 PM 60.1 °F - 51.1 °F 72% 29.84 in 10.0 mi SE 3.5 mph - N/A   Overcast
8:54 PM 57.0 °F - 48.9 °F 74% 29.86 in 10.0 mi Calm Calm - 0.00 in Rain Light Rain
9:54 PM 55.9 °F - 50.0 °F 80% 29.87 in 10.0 mi Calm Calm - 0.01 in   Overcast
10:54 PM 55.0 °F - 50.0 °F 83% 29.87 in 10.0 mi Calm Calm - 0.01 in Rain Light Rain
11:54 PM 53.1 °F - 48.9 °F 86% 29.88 in 10.0 mi North 3.5 mph - 0.03 in Rain Light Rain